Weather in Saarbrucken

Germany     49°13′53″N   6°59′53″E
temp.,
°C
wind,
m/s
gust,
m/s
humid.,
%
clouds,
%
prec.,
mm/h
press.,
hPa
HPBL,
m
29 june, wed
wed2923:00+18ne276184 0.0 1017175
02:00+15ene116463 0.0 101612
05:00+18nw1156100 0.0 101511
08:00+18nnw0064100 0.0 101518
11:00+19wsw1159100 0.0 1015221
14:00+22nw224938 0.0 1014680
17:00+26wnw12430 0.0 10131881
20:00+23w23598 0.0 1012116
30 june, thu
thu3023:00+17wnw11740 0.0 101411
02:00+15ne118169 0.0 101411
05:00+14n11850 0.0 101311
08:00+19ene22684 0.0 1012147
11:00+25ese34486 0.0 10111128
14:00+29sse3434100 0.0 10102064
17:00+29s363791 0.0 10082791
20:00+17wnw51096100 3.4 1013635
1 july, fri
fri123:00+13wsw41096100 1.2 1017615
02:00+11wsw3997100 2.5 1018528
05:00+10wsw289793 0.0 1019354
08:00+11sw2797100 0.7 1020432
11:00+16wsw356641 0.1 10211160
14:00+18w2549100 0.2 10201524
17:00+21w363546 0.0 10202542
20:00+18wsw36490 0.0 1021421
2 july, sat
sat223:00+12nw11720 0.0 102310
02:00+10ne11790 0.0 102410
05:00+9ene11820 0.0 102410
08:00+14ene23630 0.0 1024178
11:00+21e34460 0.0 10221159
14:00+24ese33370 0.0 10211692
17:00+26se33330 0.0 10191842
20:00+23sse22570 0.0 101930
3 july, sun
sun323:00+16e11720 0.0 102011
02:00+14nne11820 0.0 102010
05:00+13e118640 0.0 102010
08:00+18ene00685 0.0 1020129
11:00+25wnw114434 0.0 1019846
14:00+28sw2333100 0.0 10181749
17:00+29wsw2432100 0.0 10172218
20:00+25nw355076 0.0 1017161